{"data":{"norad_id":54082,"intl_designator":"2022-136AH","name":"STARLINK-5210","alt_names":[],"object_type":"PAYLOAD","status":"ACTIVE","operator":null,"country":"US","launch_date":"2022-10-20","launch_site_code":"AFETR","launch_vehicle":null,"mission":null,"orbit_class":"UNKNOWN","rcs_meters":null,"size_class":null,"mass_kg":null,"dimensions":null,"purposes":["comms"],"wikipedia_slug":null,"has_3d_model":false,"image_url":null,"decayed_at":null,"tle_current":{"epoch":"2026-05-24T22:42:53.477856Z","epoch_age_seconds":75619,"freshness":"FRESH","line1":"1 54082U 22136AH  26144.94645229  .00000081  00000+0  23191-4 0  9999","line2":"2 54082  53.2130 351.9737 0001313  65.5249 294.5880 15.08838294198494","mean_motion":15.08838294,"eccentricity":0.0001313,"inclination_deg":53.213,"raan_deg":351.9737,"arg_perigee_deg":65.5249,"mean_anomaly_deg":294.588,"bstar":2.3191e-5,"rev_number":19849,"period_min":95.43766258626,"perigee_km":538.84028514878,"apogee_km":540.65692190827,"semimajor_km":6917.8856035285,"source":"CELESTRAK","updated_at":"2026-05-25T13:38:17.653371Z"}}}